COSMOS 2251 DEB, 35987

Orbit data source: Space-Track

COSMOS 2251 DEB, 35987 is space debris in LEO originally from a launch on Wed, 16 Jun 1993 UTC launched from the Plesetsk Missile And Space Complex (PKMTR). The debris from Iridium 33, an American commercial communications satellite, has been tracked extensively since its accidental collision with the defunct Russian satellite Cosmos 2251 in 2009. This event, occurring at high speed in low Earth orbit (LEO), generated thousands of pieces of space debris, significantly increasing the risk of further collisions. The Iridium 33 debris cloud has impacted space traffic management and orbital debris mitigation strategies, making it a subject of ongoing study in space situational awareness.

Loading next visibility...
Identifier
35987, 1993-036AWD
Orbit
LEO
Country
Flag of CISCIS
Related business
Manufacturer
Unknown
Mission
Spacecraft
Bus & Motor
Unknown
Mass
Unknown
Launch date (UTC)
1993-06-16 (33 years ago)
Launch vehicle
Unknown
Launch site
Plesetsk Missile And Space Complex (PKMTR)
Object type
Payload
Rocket body
Debris
Shape & HBR
Unknown shape, 0.1 m
Radar Cross Section
Small (<0.1 m²)

Expand to show TLE details & history
Last TLE update: 2 weeks ago

TLE from 2 weeks ago
0 COSMOS 2251 DEB
1 35987U 93036AWD 26156.30564001  .00002897  00000-0  83937-3 0  9991
2 35987  73.9995   1.3883 0049382  86.5319 274.1484 14.44183168635843
Epoch: 2026-06-05T07:20Z
TLE epoch observation values (Epoch: 2026-06-05T07:20:07.296Z)
Latitude
-0.0001°
Longitude
-2.37958°
Altitude
744.958 km
Speed
7.484 km/s
True Right ascension
00h 05m 33s
True Declination
0° 00' 00"
Sunlit
Object was in daylight at epoch
Visualization orbit readout
Latitude
Unknown
Longitude
Unknown
Altitude
Unknown
Speed
Unknown
Apparent Right ascension
Unknown
Apparent Declination
Unknown
Sunlit
N/A
Visualization observer readout
Local Sidereal Time
02:30:03
Azimuth
Unknown
Elevation
Unknown
Doppler factor
Unknown
Orbital elements
Apogee altitude
777.491 km
Perigee altitude
707.166 km
Semi-major axis
7,120.466 km
Eccentricity
0.00494
Inclination
73.9995°
RAAN
1.3883°
Arg. of periapsis
86.5319°
True anomaly
273.58376°
Mean anomaly
274.1484°
Eccentric anomaly
273.86611°
Mean motion
3.61227 °/min
Orbital period
99.66 mins
BSTAR
0.00083937
Loading maneuver chart data...
Computing Atmospheric mass density...

Documentation

Showing up to 5 results
|